Stations météo

réclame
Mon MeteoGroup
P11-B, Pays-Bas (6203): Température de l'air & dewpoint: 17.10.2018 12:00:00 - 23.10.2018 12:00:00 (CEST)P11-B, Pays-Bas (6203): Vitesse du vent & gusts: 17.10.2018 12:00:00 - 23.10.2018 12:00:00 (CEST)P11-B, Pays-Bas (6203): Direction du vent: 17.10.2018 12:00:00 - 23.10.2018 12:00:00 (CEST)P11-B, Pays-Bas (6203): reduced air pressure: 17.10.2018 12:00:00 - 23.10.2018 12:00:00 (CEST)P11-B, Pays-Bas (6203): visibility: 17.10.2018 12:00:00 - 23.10.2018 12:00:00 (CEST)
Date & Time tt [°C] td [°C] ff [km/h] ff [knt] fx [km/h] fx [knt] dd ppp [hPa] vv [km]
23.10.2018 12:00:00 - - - - - - - - -
23.10.2018 11:00:00 12,2 8,0 52 28 58 31 - 1024,7 10
23.10.2018 10:00:00 12,3 8,1 48 26 58 31 - 1025,2 10
23.10.2018 09:00:00 12,1 8,0 50 27 58 31 - 1025,6 10
23.10.2018 08:00:00 11,8 7,6 46 25 61 33 - 1025,9 10
23.10.2018 07:00:00 12,0 7,5 50 27 58 31 - 1025,9 10
23.10.2018 06:00:00 11,8 7,9 48 26 54 29 - 1026,9 10
23.10.2018 05:00:00 11,6 7,5 46 25 54 29 - 1027,9 10
23.10.2018 04:00:00 11,9 8,1 46 25 54 29 - 1029,1 10
23.10.2018 03:00:00 12,0 7,2 48 26 54 29 - 1029,4 10
23.10.2018 02:00:00 12,3 6,5 50 27 58 31 W 1030,5 10
23.10.2018 01:00:00 12,7 6,0 42 23 50 27 - 1032,4 10
23.10.2018 00:00:00 12,6 3,2 35 19 43 23 - 1033,2 10
22.10.2018 23:00:00 12,5 4,0 29 16 36 19 W 1033,9 10
22.10.2018 22:00:00 12,3 3,6 26 14 29 16 W 1034,4 10
22.10.2018 21:00:00 12,6 5,2 16 9 25 14 WNW 1034,9 10
22.10.2018 20:00:00 12,7 3,5 13 7 25 14 WNW 1035,1 10
22.10.2018 19:00:00 12,7 4,0 16 9 25 14 NW 1034,9 10
22.10.2018 18:00:00 12,7 3,7 18 10 29 16 NW 1035,1 10
22.10.2018 17:00:00 12,9 4,6 16 9 32 18 - 1035,1 10
22.10.2018 16:00:00 13,1 4,3 28 15 32 18 NNW 1035,0 10
22.10.2018 15:00:00 13,0 4,2 21 11 32 18 - 1034,9 10
22.10.2018 14:00:00 12,7 4,9 18 10 36 19 - 1035,0 10
22.10.2018 13:00:00 12,8 4,2 16 9 29 16 - 1034,8 10
22.10.2018 12:00:00 12,8 4,1 22 12 36 19 - 1034,3 10
22.10.2018 11:00:00 13,0 6,1 26 14 40 21 - 1034,1 10
22.10.2018 10:00:00 13,0 5,5 24 13 43 23 - 1033,3 10
22.10.2018 09:00:00 12,9 5,6 34 18 40 21 NNW 1032,4 10
22.10.2018 08:00:00 13,3 6,3 31 17 43 23 - 1031,4 10
22.10.2018 07:00:00 13,5 6,3 34 18 43 23 NNW 1030,8 10
22.10.2018 06:00:00 13,8 7,2 41 22 47 25 NNW 1030,3 10
22.10.2018 05:00:00 13,9 8,1 29 16 43 23 - 1029,6 10
22.10.2018 04:00:00 14,3 10,3 35 19 43 23 NNW 1028,9 10
22.10.2018 03:00:00 13,9 11,5 29 16 47 25 NNW 1028,6 5
22.10.2018 02:00:00 14,2 12,1 26 14 40 21 - 1028,1 10
22.10.2018 01:00:00 15,0 11,6 37 20 43 23 NNW 1027,4 10
22.10.2018 00:00:00 15,7 12,8 29 16 43 23 NW 1026,9 10
21.10.2018 23:00:00 16,0 12,9 21 11 36 19 WNW 1026,5 10
21.10.2018 22:00:00 16,3 12,8 16 9 22 12 WNW 1026,3 10
21.10.2018 21:00:00 16,3 13,4 26 14 29 16 W 1026,1 10
21.10.2018 20:00:00 16,1 12,6 31 17 32 18 WSW 1026,0 2,0
21.10.2018 19:00:00 15,9 12,5 35 19 36 19 SSW 1025,3 10
21.10.2018 18:00:00 15,9 12,3 37 20 36 19 SSW 1025,0 10
21.10.2018 17:00:00 15,9 12,0 37 20 36 19 SSW 1025,2 10
21.10.2018 16:00:00 15,8 12,1 35 19 36 19 SSW 1025,7 10
21.10.2018 15:00:00 15,9 12,1 35 19 32 18 SSW 1026,2 10
21.10.2018 14:00:00 15,8 12,5 31 17 32 18 SSW 1026,6 10
21.10.2018 13:00:00 15,9 12,3 29 16 29 16 SSW 1027,2 10
21.10.2018 12:00:00 15,9 12,2 29 16 29 16 SSW 1027,4 10
21.10.2018 11:00:00 15,8 12,1 31 17 29 16 SSW 1027,7 10
21.10.2018 10:00:00 15,5 13,0 28 15 29 16 SSW 1027,6 10
21.10.2018 09:00:00 15,7 12,3 29 16 29 16 SSW 1027,6 10
21.10.2018 08:00:00 15,7 12,2 26 14 25 14 SSW 1027,4 10
21.10.2018 07:00:00 15,7 12,2 24 13 25 14 SW 1027,5 10
21.10.2018 06:00:00 15,7 12,6 28 15 29 16 SW 1027,9 10
21.10.2018 05:00:00 15,5 12,3 29 16 29 16 SW 1028,1 10
21.10.2018 04:00:00 15,4 11,8 28 15 25 14 SW 1028,6 10
21.10.2018 03:00:00 15,3 11,4 28 15 29 16 SSW 1029,0 10
21.10.2018 02:00:00 15,3 10,9 26 14 25 14 SSW 1029,3 10
21.10.2018 01:00:00 15,3 10,7 22 12 22 12 SSW 1030,1 10
21.10.2018 00:00:00 15,1 10,3 22 12 25 14 SSW 1030,2 10
20.10.2018 23:00:00 15,0 10,6 21 11 22 12 SW 1030,3 10
20.10.2018 22:00:00 15,0 10,4 21 11 22 12 SSW 1030,4 10
20.10.2018 21:00:00 14,8 9,9 18 10 22 12 SSW 1030,4 10
20.10.2018 20:00:00 14,8 10,1 15 8 18 10 SW 1030,4 10
20.10.2018 19:00:00 14,6 9,5 15 8 18 10 SW 1030,4 10
20.10.2018 18:00:00 14,7 9,3 16 9 18 10 SW 1030,4 10
20.10.2018 17:00:00 14,7 9,2 15 8 18 10 SW 1030,7 10
20.10.2018 16:00:00 14,6 9,3 15 8 18 10 SW 1030,8 10
20.10.2018 15:00:00 14,5 9,2 18 10 18 10 WSW 1031,1 10
20.10.2018 14:00:00 14,4 9,0 16 9 18 10 SW 1031,3 10
20.10.2018 13:00:00 14,3 8,5 13 7 14 8 SW 1031,6 10
20.10.2018 12:00:00 14,2 8,6 13 7 18 10 WSW 1031,8 10
20.10.2018 11:00:00 14,1 8,5 13 7 14 8 WSW 1031,3 10
20.10.2018 10:00:00 14,0 8,5 11 6 14 8 WSW 1030,7 10
20.10.2018 09:00:00 13,9 8,4 8 4 11 6 - 1030,4 10
20.10.2018 08:00:00 14,0 8,2 8 4 11 6 - 1029,9 10
20.10.2018 07:00:00 14,1 7,8 8 4 11 6 WNW 1029,8 10
20.10.2018 06:00:00 14,0 7,2 11 6 18 10 W 1029,2 10
20.10.2018 05:00:00 13,8 8,8 11 6 18 10 W 1028,9 10
20.10.2018 04:00:00 13,7 7,9 11 6 14 8 WSW 1028,7 10
20.10.2018 03:00:00 13,5 7,4 8 4 11 6 - 1028,5 10
20.10.2018 02:00:00 13,4 7,0 8 4 11 6 SSW 1028,3 10
20.10.2018 01:00:00 13,3 6,5 4 2 7 4 - 1028,5 10
20.10.2018 00:00:00 13,1 6,5 5 3 11 6 E 1028,2 10
19.10.2018 23:00:00 13,0 6,0 8 4 11 6 E 1028,1 10
19.10.2018 22:00:00 13,0 6,1 4 2 11 6 - 1028,0 10
19.10.2018 21:00:00 12,9 6,1 8 4 14 8 NNE 1027,6 10
19.10.2018 20:00:00 13,0 6,2 11 6 14 8 NNE 1027,0 10
19.10.2018 19:00:00 12,8 6,0 11 6 18 10 NNE 1026,2 10
19.10.2018 18:00:00 12,9 6,0 9 5 18 10 NNE 1025,9 10
19.10.2018 17:00:00 12,8 5,9 11 6 14 8 NNE 1026,1 10
19.10.2018 16:00:00 12,7 6,1 9 5 14 8 NNE 1026,0 10
19.10.2018 15:00:00 12,5 6,3 8 4 14 8 NNE 1026,3 10
19.10.2018 14:00:00 12,3 6,3 9 5 14 8 NE 1026,2 10
19.10.2018 13:00:00 12,6 6,3 15 8 18 10 ENE 1026,5 10
19.10.2018 12:00:00 12,6 6,0 15 8 25 14 ENE 1026,5 10
19.10.2018 11:00:00 12,3 6,3 22 12 29 16 ENE 1026,2 10
19.10.2018 10:00:00 12,3 5,7 24 13 29 16 ENE 1025,9 10
19.10.2018 09:00:00 12,7 5,9 26 14 29 16 ENE 1026,1 10
19.10.2018 08:00:00 12,7 6,1 24 13 29 16 ENE 1025,9 10
19.10.2018 07:00:00 12,9 6,7 28 15 29 16 ENE 1025,9 10
19.10.2018 06:00:00 12,9 7,0 28 15 29 16 E 1025,9 10
19.10.2018 05:00:00 12,9 7,2 26 14 29 16 E 1026,0 10
19.10.2018 04:00:00 13,1 8,4 29 16 32 18 E 1025,9 10
19.10.2018 03:00:00 13,6 8,2 26 14 29 16 E 1025,9 10
19.10.2018 02:00:00 13,8 8,3 28 15 29 16 E 1026,1 10
19.10.2018 01:00:00 14,0 8,3 26 14 29 16 ENE 1026,1 10
19.10.2018 00:00:00 14,3 8,4 29 16 29 16 ENE 1026,2 10
18.10.2018 23:00:00 14,8 6,6 29 16 32 18 ENE 1026,3 10
18.10.2018 22:00:00 14,7 8,8 28 15 29 16 ENE 1026,4 10
18.10.2018 21:00:00 14,7 8,7 26 14 32 18 NNE 1026,4 10
18.10.2018 20:00:00 14,9 6,5 28 15 29 16 NE 1026,2 10
18.10.2018 19:00:00 14,7 8,1 21 11 29 16 NNE 1026,1 10
18.10.2018 18:00:00 14,4 8,5 21 11 25 14 NNE 1025,9 10
18.10.2018 17:00:00 14,3 8,5 18 10 25 14 N 1025,9 10
18.10.2018 16:00:00 14,3 8,5 14 8 25 14 NNE 1026,3 33
18.10.2018 15:00:00 14,3 8,3 21 11 29 16 NNE 1026,3 10
18.10.2018 14:00:00 14,2 8,7 24 13 32 18 N 1026,4 10
18.10.2018 13:00:00 14,4 8,9 24 13 32 18 NNE 1026,6 10
18.10.2018 12:00:00 14,4 8,8 24 13 32 18 NNE 1026,6 10
18.10.2018 11:00:00 14,4 9,0 28 15 36 19 NNE 1026,3 10
18.10.2018 10:00:00 14,3 8,6 26 14 36 19 N 1025,9 10
18.10.2018 09:00:00 14,2 8,5 28 15 36 19 N 1025,1 10
18.10.2018 08:00:00 14,5 8,9 21 11 29 16 N 1024,7 10
18.10.2018 07:00:00 14,5 9,6 21 11 29 16 N 1024,4 10
18.10.2018 06:00:00 14,6 9,7 16 9 29 16 - 1024,1 10
18.10.2018 05:00:00 15,0 10,6 15 8 32 18 - 1024,0 10
18.10.2018 04:00:00 15,1 10,6 15 8 29 16 - 1023,7 10
18.10.2018 03:00:00 15,2 11,6 26 14 29 16 N 1023,5 10
18.10.2018 02:00:00 14,5 12,5 18 10 25 14 N 1023,6 8
18.10.2018 01:00:00 15,1 12,2 9 5 18 10 - 1023,1 10
18.10.2018 00:00:00 13,9 12,7 15 8 22 12 NNW 1022,7 10
17.10.2018 23:00:00 14,7 13,0 11 6 14 8 NNW 1022,6 9
17.10.2018 22:00:00 14,7 12,6 15 8 18 10 NNW 1022,2 10
17.10.2018 21:00:00 14,5 12,8 11 6 14 8 NNW 1021,7 8
17.10.2018 20:00:00 14,1 11,9 11 6 18 10 NW 1021,3 3,4
17.10.2018 19:00:00 15,4 11,0 9 5 11 6 NW 1020,6 10
17.10.2018 18:00:00 15,5 10,7 9 5 14 8 W 1020,2 10
17.10.2018 17:00:00 15,3 10,4 15 8 18 10 W 1019,9 10
17.10.2018 16:00:00 15,4 10,3 16 9 18 10 WSW 1019,8 10
17.10.2018 15:00:00 15,4 10,6 21 11 22 12 WSW 1019,5 10
17.10.2018 14:00:00 15,4 10,7 16 9 22 12 WSW 1019,3 10
17.10.2018 13:00:00 15,3 10,3 22 12 22 12 WSW 1019,3 10
17.10.2018 12:00:00 15,4 11,1 22 12 25 14 SW 1019,2 10

tt = Température de l'air
td = dewpoint
ff = Vitesse du vent
fx = gusts
dd = Direction du vent
ppp = reduced air pressure
vv = visibility

stations d'obs. à proximité